Time,TemperatureF,DewpointF,PressureIn,WindDirection,WindDirectionDegrees,WindSpeedMPH,WindSpeedGustMPH,Humidity,HourlyPrecipIn,Conditions,Clouds,dailyrainin,SolarRadiationWatts/m^2,SoftwareType,DateUTC
2013-02-15 00:11:00,52.0,19.0,-100.00,NNW,328,2.0,9.0,27,0.00,,,0.00,0.000000,,2013-02-15 08:11:00,
2013-02-15 00:21:00,52.0,19.0,-100.00,NNW,328,2.0,9.0,27,0.00,,,0.00,0.000000,,2013-02-15 08:21:00,
2013-02-15 00:31:00,52.0,19.0,-100.00,NNW,328,2.0,9.0,27,0.00,,,0.00,0.000000,,2013-02-15 08:31:00,
2013-02-15 00:41:00,52.0,19.0,-100.00,NNW,328,2.0,9.0,27,0.00,,,0.00,0.000000,,2013-02-15 08:41:00,
2013-02-15 00:51:00,53.0,19.0,-100.00,NE,53,4.0,11.0,26,0.00,,,0.00,0.000000,,2013-02-15 08:51:00,
2013-02-15 01:12:00,53.0,19.0,-100.00,NE,53,4.0,11.0,26,0.00,,,0.00,0.000000,,2013-02-15 09:12:00,
2013-02-15 01:21:00,53.0,19.0,-100.00,NE,53,4.0,11.0,26,0.00,,,0.00,0.000000,,2013-02-15 09:21:00,
2013-02-15 01:31:00,53.0,19.0,-100.00,NE,53,4.0,11.0,26,0.00,,,0.00,0.000000,,2013-02-15 09:31:00,
2013-02-15 01:41:00,53.0,19.0,-100.00,NE,53,4.0,11.0,26,0.00,,,0.00,0.000000,,2013-02-15 09:41:00,
2013-02-15 01:51:00,50.0,19.0,-100.00,NE,50,1.0,13.0,29,-99.99,,,0.00,0.000000,,2013-02-15 09:51:00,
2013-02-15 02:21:00,50.0,19.0,-100.00,NE,50,1.0,13.0,29,-99.99,,,0.00,0.000000,,2013-02-15 10:21:00,
2013-02-15 02:31:00,50.0,19.0,-100.00,NE,50,1.0,13.0,29,-99.99,,,0.00,0.000000,,2013-02-15 10:31:00,
2013-02-15 02:41:00,50.0,19.0,-100.00,NE,50,1.0,13.0,29,-99.99,,,0.00,0.000000,,2013-02-15 10:41:00,
2013-02-15 02:51:00,50.0,20.0,-100.00,South,191,1.0,6.0,30,0.00,,,-99.99,0.000000,,2013-02-15 10:51:00,
2013-02-15 03:11:00,50.0,20.0,-100.00,South,191,1.0,6.0,30,0.00,,,-99.99,0.000000,,2013-02-15 11:11:00,
2013-02-15 03:22:00,50.0,20.0,-100.00,South,191,1.0,6.0,30,0.00,,,-99.99,0.000000,,2013-02-15 11:22:00,
2013-02-15 03:31:00,50.0,20.0,-100.00,South,191,1.0,6.0,30,0.00,,,-99.99,0.000000,,2013-02-15 11:31:00,
2013-02-15 03:42:00,50.0,20.0,-100.00,South,191,1.0,6.0,30,0.00,,,-99.99,0.000000,,2013-02-15 11:42:00,
2013-02-15 03:51:00,51.0,20.0,-100.00,SE,127,2.0,9.0,29,0.00,,,0.00,0.000000,,2013-02-15 11:51:00,
2013-02-15 04:21:00,51.0,20.0,-100.00,SE,127,2.0,9.0,29,0.00,,,0.00,0.000000,,2013-02-15 12:21:00,
2013-02-15 04:32:00,51.0,20.0,-100.00,SE,127,2.0,9.0,29,0.00,,,0.00,0.000000,,2013-02-15 12:32:00,
2013-02-15 04:42:00,51.0,20.0,-100.00,SE,127,2.0,9.0,29,0.00,,,0.00,0.000000,,2013-02-15 12:42:00,
2013-02-15 04:51:00,51.0,21.0,-100.00,NW,326,4.0,9.0,30,-99.99,,,0.00,0.000000,,2013-02-15 12:51:00,
2013-02-15 05:11:00,51.0,21.0,-100.00,NW,326,4.0,9.0,30,-99.99,,,0.00,0.000000,,2013-02-15 13:11:00,
2013-02-15 05:21:00,51.0,21.0,-100.00,NW,326,4.0,9.0,30,-99.99,,,0.00,0.000000,,2013-02-15 13:21:00,
2013-02-15 05:31:00,51.0,21.0,-100.00,NW,326,4.0,9.0,30,-99.99,,,0.00,0.000000,,2013-02-15 13:31:00,
2013-02-15 05:41:00,51.0,21.0,-100.00,NW,326,4.0,9.0,30,-99.99,,,0.00,0.000000,,2013-02-15 13:41:00,
2013-02-15 05:51:00,50.0,19.0,-100.00,SE,139,6.0,11.0,29,-99.99,,,0.00,0.000000,,2013-02-15 13:51:00,
2013-02-15 06:21:00,50.0,19.0,-100.00,SE,139,6.0,11.0,29,-99.99,,,0.00,0.000000,,2013-02-15 14:21:00,
2013-02-15 06:32:00,50.0,19.0,-100.00,SE,139,6.0,11.0,29,-99.99,,,0.00,0.000000,,2013-02-15 14:32:00,
2013-02-15 06:41:00,50.0,19.0,-100.00,SE,139,6.0,11.0,29,-99.99,,,0.00,0.000000,,2013-02-15 14:41:00,
2013-02-15 06:51:00,48.0,18.0,-100.00,East,96,3.0,8.0,30,-99.99,,,0.00,2.000000,,2013-02-15 14:51:00,
2013-02-15 07:21:00,48.0,18.0,-100.00,East,96,3.0,8.0,30,-99.99,,,0.00,2.000000,,2013-02-15 15:21:00,
2013-02-15 07:32:00,48.0,18.0,-100.00,East,96,3.0,8.0,30,-99.99,,,0.00,2.000000,,2013-02-15 15:32:00,
2013-02-15 07:41:00,48.0,18.0,-100.00,East,96,3.0,8.0,30,-99.99,,,0.00,2.000000,,2013-02-15 15:41:00,
2013-02-15 07:51:00,52.0,19.0,-100.00,ENE,78,5.0,12.0,27,0.00,,,0.00,125.000000,,2013-02-15 15:51:00,
2013-02-15 08:22:00,52.0,19.0,-100.00,ENE,78,5.0,12.0,27,0.00,,,0.00,125.000000,,2013-02-15 16:22:00,
2013-02-15 08:31:00,52.0,19.0,-100.00,ENE,78,5.0,12.0,27,0.00,,,0.00,125.000000,,2013-02-15 16:31:00,
2013-02-15 08:42:00,52.0,19.0,-100.00,ENE,78,5.0,12.0,27,0.00,,,0.00,125.000000,,2013-02-15 16:42:00,
2013-02-15 08:51:00,55.0,19.0,-100.00,East,80,6.0,13.0,24,0.00,,,0.00,353.000000,,2013-02-15 16:51:00,
2013-02-15 09:11:00,55.0,19.0,-100.00,East,80,6.0,13.0,24,0.00,,,0.00,353.000000,,2013-02-15 17:11:00,
2013-02-15 09:21:00,55.0,19.0,-100.00,East,80,6.0,13.0,24,0.00,,,0.00,353.000000,,2013-02-15 17:21:00,
2013-02-15 09:32:00,55.0,19.0,-100.00,East,80,6.0,13.0,24,0.00,,,0.00,353.000000,,2013-02-15 17:32:00,
2013-02-15 09:41:00,55.0,19.0,-100.00,East,80,6.0,13.0,24,0.00,,,0.00,353.000000,,2013-02-15 17:41:00,
2013-02-15 09:51:00,59.0,19.0,-100.00,East,80,10.0,15.0,21,0.00,,,0.00,555.000000,,2013-02-15 17:51:00,
2013-02-15 10:11:00,59.0,19.0,-100.00,East,80,10.0,15.0,21,0.00,,,0.00,555.000000,,2013-02-15 18:11:00,
2013-02-15 10:21:00,59.0,19.0,-100.00,East,80,10.0,15.0,21,0.00,,,0.00,555.000000,,2013-02-15 18:21:00,
2013-02-15 10:31:00,59.0,19.0,-100.00,East,80,10.0,15.0,21,0.00,,,0.00,555.000000,,2013-02-15 18:31:00,
2013-02-15 10:41:00,59.0,19.0,-100.00,East,80,10.0,15.0,21,0.00,,,0.00,555.000000,,2013-02-15 18:41:00,
2013-02-15 10:51:00,60.0,16.0,-100.00,ENE,71,14.0,22.0,18,0.00,,,0.00,710.000000,,2013-02-15 18:51:00,
2013-02-15 11:21:00,60.0,16.0,-100.00,ENE,71,14.0,22.0,18,0.00,,,0.00,710.000000,,2013-02-15 19:21:00,
2013-02-15 11:32:00,60.0,16.0,-100.00,ENE,71,14.0,22.0,18,0.00,,,0.00,710.000000,,2013-02-15 19:32:00,
2013-02-15 11:41:00,60.0,16.0,-100.00,ENE,71,14.0,22.0,18,0.00,,,0.00,710.000000,,2013-02-15 19:41:00,
2013-02-15 11:51:00,63.0,16.0,-100.00,ENE,69,14.0,24.0,16,0.00,,,0.00,800.000000,,2013-02-15 19:51:00,
2013-02-15 12:21:00,63.0,16.0,-100.00,ENE,69,14.0,24.0,16,0.00,,,0.00,800.000000,,2013-02-15 20:21:00,
2013-02-15 12:32:00,63.0,16.0,-100.00,ENE,69,14.0,24.0,16,0.00,,,0.00,800.000000,,2013-02-15 20:32:00,
2013-02-15 12:42:00,63.0,16.0,-100.00,ENE,69,14.0,24.0,16,0.00,,,0.00,800.000000,,2013-02-15 20:42:00,
2013-02-15 12:51:00,63.0,15.0,-100.00,East,88,11.0,23.0,15,0.00,,,0.00,821.000000,,2013-02-15 20:51:00,
2013-02-15 13:11:00,63.0,15.0,-100.00,East,88,11.0,23.0,15,0.00,,,0.00,821.000000,,2013-02-15 21:11:00,
2013-02-15 13:21:00,63.0,15.0,-100.00,East,88,11.0,23.0,15,0.00,,,0.00,821.000000,,2013-02-15 21:21:00,
2013-02-15 13:31:00,63.0,15.0,-100.00,East,88,11.0,23.0,15,0.00,,,0.00,821.000000,,2013-02-15 21:31:00,
2013-02-15 13:42:00,63.0,15.0,-100.00,East,88,11.0,23.0,15,0.00,,,0.00,821.000000,,2013-02-15 21:42:00,
2013-02-15 13:51:00,64.0,14.0,-100.00,East,86,16.0,22.0,14,0.00,,,0.00,774.000000,,2013-02-15 21:51:00,
2013-02-15 14:21:00,64.0,14.0,-100.00,East,86,16.0,22.0,14,0.00,,,0.00,774.000000,,2013-02-15 22:21:00,
2013-02-15 14:31:00,64.0,14.0,-100.00,East,86,16.0,22.0,14,0.00,,,0.00,774.000000,,2013-02-15 22:31:00,
2013-02-15 14:41:00,64.0,14.0,-100.00,East,86,16.0,22.0,14,0.00,,,0.00,774.000000,,2013-02-15 22:41:00,
2013-02-15 14:51:00,63.0,11.0,-100.00,East,91,14.0,22.0,13,0.00,,,0.00,658.000000,,2013-02-15 22:51:00,
2013-02-15 15:21:00,63.0,11.0,-100.00,East,91,14.0,22.0,13,0.00,,,0.00,658.000000,,2013-02-15 23:21:00,
2013-02-15 15:31:00,63.0,11.0,-100.00,East,91,14.0,22.0,13,0.00,,,0.00,658.000000,,2013-02-15 23:31:00,
2013-02-15 15:41:00,63.0,11.0,-100.00,East,91,14.0,22.0,13,0.00,,,0.00,658.000000,,2013-02-15 23:41:00,
2013-02-15 15:51:00,63.0,10.0,-100.00,East,93,10.0,24.0,12,0.00,,,0.00,482.000000,,2013-02-15 23:51:00,
2013-02-15 16:11:00,63.0,10.0,-100.00,East,93,10.0,24.0,12,0.00,,,0.00,482.000000,,2013-02-16 00:11:00,
2013-02-15 16:21:00,63.0,10.0,-100.00,East,93,10.0,24.0,12,0.00,,,0.00,482.000000,,2013-02-16 00:21:00,
2013-02-15 16:32:00,63.0,10.0,-100.00,East,93,10.0,24.0,12,0.00,,,0.00,482.000000,,2013-02-16 00:32:00,
2013-02-15 16:41:00,63.0,10.0,-100.00,East,93,10.0,24.0,12,0.00,,,0.00,482.000000,,2013-02-16 00:41:00,
2013-02-15 16:51:00,60.0,7.0,-100.00,East,86,9.0,19.0,12,0.00,,,0.00,229.000000,,2013-02-16 00:51:00,
2013-02-15 17:21:00,60.0,7.0,-100.00,East,86,9.0,19.0,12,0.00,,,0.00,229.000000,,2013-02-16 01:21:00,
2013-02-15 17:31:00,60.0,7.0,-100.00,East,86,9.0,19.0,12,0.00,,,0.00,229.000000,,2013-02-16 01:31:00,
2013-02-15 17:41:00,60.0,7.0,-100.00,East,86,9.0,19.0,12,0.00,,,0.00,229.000000,,2013-02-16 01:41:00,
2013-02-15 17:51:00,57.0,13.0,-100.00,East,87,2.0,15.0,17,0.00,,,0.00,11.000000,,2013-02-16 01:51:00,
2013-02-15 18:21:00,57.0,13.0,-100.00,East,87,2.0,15.0,17,0.00,,,0.00,11.000000,,2013-02-16 02:21:00,
2013-02-15 18:31:00,57.0,13.0,-100.00,East,87,2.0,15.0,17,0.00,,,0.00,11.000000,,2013-02-16 02:31:00,
2013-02-15 18:42:00,57.0,13.0,-100.00,East,87,2.0,15.0,17,0.00,,,0.00,11.000000,,2013-02-16 02:42:00,
2013-02-15 18:51:00,56.0,12.0,-100.00,North,349,1.0,8.0,17,0.00,,,0.00,0.000000,,2013-02-16 02:51:00,
2013-02-15 19:21:00,56.0,12.0,-100.00,North,349,1.0,8.0,17,0.00,,,0.00,0.000000,,2013-02-16 03:21:00,
2013-02-15 19:31:00,56.0,12.0,-100.00,North,349,1.0,8.0,17,0.00,,,0.00,0.000000,,2013-02-16 03:31:00,
2013-02-15 19:41:00,56.0,12.0,-100.00,North,349,1.0,8.0,17,0.00,,,0.00,0.000000,,2013-02-16 03:41:00,
2013-02-15 19:51:00,53.0,12.0,-100.00,ENE,71,2.0,7.0,19,0.00,,,0.00,0.000000,,2013-02-16 03:51:00,
2013-02-15 20:11:00,53.0,12.0,-100.00,ENE,71,2.0,7.0,19,0.00,,,0.00,0.000000,,2013-02-16 04:11:00,
2013-02-15 20:21:00,53.0,12.0,-100.00,ENE,71,2.0,7.0,19,0.00,,,0.00,0.000000,,2013-02-16 04:21:00,
2013-02-15 20:31:00,53.0,12.0,-100.00,ENE,71,2.0,7.0,19,0.00,,,0.00,0.000000,,2013-02-16 04:31:00,
2013-02-15 20:41:00,53.0,12.0,-100.00,ENE,71,2.0,7.0,19,0.00,,,0.00,0.000000,,2013-02-16 04:41:00,
2013-02-15 20:51:00,55.0,12.0,-100.00,ESE,108,3.0,8.0,18,0.00,,,0.00,0.000000,,2013-02-16 04:51:00,
2013-02-15 21:21:00,55.0,12.0,-100.00,ESE,108,3.0,8.0,18,0.00,,,0.00,0.000000,,2013-02-16 05:21:00,
2013-02-15 21:31:00,55.0,12.0,-100.00,ESE,108,3.0,8.0,18,0.00,,,0.00,0.000000,,2013-02-16 05:31:00,
2013-02-15 21:42:00,55.0,12.0,-100.00,ESE,108,3.0,8.0,18,0.00,,,0.00,0.000000,,2013-02-16 05:42:00,
2013-02-15 21:51:00,55.0,12.0,-100.00,SSE,158,4.0,10.0,18,0.00,,,0.00,0.000000,,2013-02-16 05:51:00,
2013-02-15 22:11:00,55.0,12.0,-100.00,SSE,158,4.0,10.0,18,0.00,,,0.00,0.000000,,2013-02-16 06:11:00,
2013-02-15 22:21:00,55.0,12.0,-100.00,SSE,158,4.0,10.0,18,0.00,,,0.00,0.000000,,2013-02-16 06:21:00,
2013-02-15 22:32:00,55.0,12.0,-100.00,SSE,158,4.0,10.0,18,0.00,,,0.00,0.000000,,2013-02-16 06:32:00,
2013-02-15 22:41:00,55.0,12.0,-100.00,SSE,158,4.0,10.0,18,0.00,,,0.00,0.000000,,2013-02-16 06:41:00,
2013-02-15 22:51:00,55.0,12.0,-100.00,SSE,164,3.0,9.0,18,0.00,,,0.00,0.000000,,2013-02-16 06:51:00,
2013-02-15 23:21:00,55.0,12.0,-100.00,SSE,164,3.0,9.0,18,0.00,,,0.00,0.000000,,2013-02-16 07:21:00,
2013-02-15 23:31:00,55.0,12.0,-100.00,SSE,164,3.0,9.0,18,0.00,,,0.00,0.000000,,2013-02-16 07:31:00,
2013-02-15 23:42:00,55.0,12.0,-100.00,SSE,164,3.0,9.0,18,0.00,,,0.00,0.000000,,2013-02-16 07:42:00,
2013-02-15 23:51:00,53.0,11.0,-100.00,West,268,2.0,8.0,18,0.00,,,0.00,0.000000,,2013-02-16 07:51:00,